Location: Unspecified
(42.3650°N, 71.1030°W)
Time: 17:05:34
(UTC+00:00)

Transit 4A - Pass Details

Date: 29 June 2024
Orbit: 870 x 973 km, 66.8° (Epoch: 17 July)

Event Time Altitude Azimuth Distance (km) Brightness Sun altitude
Rises 07:55:14 0° 338° (NNW) 3,488 11.3 -11.5°
Reaches altitude 10° 07:59:32 10° 8° (N) 2,565 11.1 -11.0°
Maximum altitude 08:01:53 12° 31° (NNE) 2,410 11.4 -10.7°
Drops below altitude 10° 08:04:15 10° 55° (NE) 2,587 11.8 -10.3°
Sets 08:08:37 0° 84° (E) 3,552 11.8 -9.8°
